sat.trackr.live / text

‹ back to catalog

STARLINK-35074

NORAD 65422 · 2025-192U

PAYLOAD ACTIVE UNKNOWN

§ Identity

Operator
Country
US
Launch date
2025-08-31
Launch site
AFETR
Launch vehicle
Mass (kg)
RCS (m²)

Purposes: comms

External: N2YO · Heavens-Above · Gunter

§ Orbital elements

Epoch: 2026-09-20T15:53:59.522208Z

Period
93.85 min
Inclination
53.1595°
Eccentricity
0.0001470
Mean motion
15.34391455 rev/d
Perigee alt
461.7 km
Apogee alt
463.7 km
Semi-major
6,840.9 km
B*
3.7521e-4
RAAN
44.7159°
Arg perigee
92.8363°
Mean anomaly
267.2808°
Rev number
5,926

§ Raw data

STARLINK-350741 65422U 25192U   26263.66249447  .00012318  00000+0  37521-3 0  99942 65422  53.1595  44.7159 0001470  92.8363 267.2808 15.34391455 59267

JSON: /api/v1/satellites/65422 · /tle

For live sub-satellite position, see the globe view (requires WebGL).

§ Visibility from observer

Set your observer location to see the next 7 days of passes ≥ 10°. The values pass through the URL so the page stays shareable.

No JS? Fill the form by hand. The geolocation button needs JavaScript.